Regional Weather Roundup
Issued by NWS Lake Charles, LA

Home | Current Version | Previous Version | Text Only | Print | Product List | Glossary On
Versions: 1 2 3 4 5 6 7 8 9 10 11 12 13 14 15 16 17 18 19 20 21 22 23 24 25 26 27 28 29 30 31 32 33 34 35 36 37 38 39 40 41 42 43 44 45 46 47 48 49 50
000
ASUS44 KLCH 310010
RWRLCH
RWRLCH
REGIONAL WEATHER ROUNDUP
NATIONAL WEATHER SERVICE LAKE CHARLES LA
700 PM CDT SAT AUG 30 2014

Note: "fair" indicates few or no clouds below 12,000 feet with no
significant weather and/or obstructions to visibility.


ACROSS SOUTHEAST TEXAS

CITY           SKY/WX    TMP DP  RH WIND       PRES   REMARKS
BEAUMONT       CLOUDY    79  75  87 NE3       29.94R
BEAUMONT CITY  CLOUDY    77  76  96 E5        29.94R
ORANGE         CLOUDY    78  78 100 CALM      29.96R
JASPER         MOCLDY    77  73  86 SE5       29.96S
$$

ACROSS CENTRAL LOUISIANA

CITY           SKY/WX    TMP DP  RH WIND       PRES   REMARKS
LEESVILLE      CLOUDY    76  74  93 S6        29.96S
FULLERTON      MOCLDY    78  74  87 CALM      29.95R
ALEXANDRIA INT CLOUDY    77  74  90 S6        29.96S
ESLER FIELD    LGT RAIN  78  74  87 S9        29.98R
DERIDDER       MOCLDY    77  75  92 CALM      29.98S FOG
OAKDALE        CLOUDY    77  74  92 CALM      29.98S
OPELOUSAS      DRIZZLE   73  72  95 SE3       29.99F
$$

ACROSS SOUTHWEST AND SOUTH CENTRAL LOUISIANA

CITY           SKY/WX    TMP DP  RH WIND       PRES   REMARKS
SULPHUR        CLOUDY    78  76  94 CALM      29.96R
LAKE CHARLES   CLOUDY    76  74  93 SE9       29.96S
CHENNAULT INT  NOT AVBL
CAMERON PHI    PTCLDY    79  73  83 S14G21    29.95F
DEQUINCY       MOCLDY    76  75  95 CALM      29.96S
JENNINGS       CLOUDY    74  74  99 SE5       29.97F
LAFAYETTE      LGT RAIN  74  72  93 VRB3      30.00F
NEW IBERIA     LGT RAIN  74  72  93 SE8       30.02F
ABBEVILLE      DRIZZLE   73  72  98 E5        30.00F
PATTERSON        N/A     73  72  94 N3        30.06F
SALT POINT       N/A     78  74  87 NW3       30.02F
$$

SELECTED SITES ACROSS THE REGION

CITY           SKY/WX    TMP DP  RH WIND       PRES   REMARKS
HOUSTON BUSH   MOCLDY    84  73  70 SE13      29.91S
HOUSTON HOBBY  CLOUDY    82  74  76 S9        29.91S
GALVESTON      CLOUDY    80  75  84 SE13      29.95R
COLLEGE STAT   PTCLDY    91  67  44 S8        29.88R
CONROE         MOCLDY    85  73  67 SE13      29.92R
HUNTSVILLE     PTCLDY    88  72  58 VRB6      29.90S
LUFKIN         PTCLDY    85  75  72 SE8       29.91S
SHREVEPORT     MOCLDY    81  74  79 CALM      29.91R
MONROE         CLOUDY    76  73  91 S9        29.95S
NATCHEZ MS     CLOUDY    75  72  88 S7        30.00S
BATON ROUGE    LGT RAIN  75  73  93 S8        30.02S
N.O. INTL ARPT CLOUDY    80  74  81 CALM      30.04R
SLIDELL        CLOUDY    76  73  91 CALM      30.03S
$$

MARINE REPORTS

STATION/POSITION TIME  TEMP    WIND        PRES    VSBY  WAVE
                       AIR SEA DIR/SP/G                  HT/PER
                 (UTC) (F)     (DEG/KT/KT) (MB)    (MI)  (FT/S)
BUOY 30 S HIGH I 0000   81 85  150/ 14/ 16 1013.8R         4/ 7
SEA RIM ST PARK  0000   79     160/ 13/ 15 1014.3R
PORT ARTHUR      0000      84  140/  5/ 11 1013.8R
SABINE PASS N    0000   79 83  170/ 14/ 17 1013.3R
TEXAS POINT      0000   79 83  150/ 17/ 20 1013.6R
CALCASIEU PASS   0000   78 81  170/ 15/ 18 1014.9F
LK CHARLES BEACH 0000   76                 1015.0R
MARSH ISLAND     NOT AVBL
FRESH WATER LOCK 0000   75 81   80/  6/  8 1015.4F
AMERADA PASS     0000   75 83  300/  9/ 12 1016.8F
$$


USA.gov is the U.S. government's official web portal to all federal, state and local government web resources and services.